AO-07 1 07530U 74089B 22356.44406307 -.00000036 00000-0 60505-4 0 9999 2 07530 101.9291 337.0651 0012419 42.3194 84.6925 12.53659561201027 UO-11 1 14781U 84021B 22356.93030566 .00001251 00000-0 15606-3 0 9996 2 14781 97.6375 336.0177 0009745 65.9588 294.2646 14.84055902 88998 AO-16 1 20439U 90005D 22356.94169101 .00000170 00000-0 79037-4 0 9999 2 20439 98.8671 337.8263 0010889 5.5221 49.2155 14.32974289719914 LO-19 1 20442U 90005G 22356.47253926 .00000154 00000-0 72871-4 0 9991 2 20442 98.8211 324.4584 0011423 342.2736 17.8047 14.33127558720095 HUBBLE 1 20580U 90037B 22356.48803480 .00003305 00000-0 17984-3 0 9990 2 20580 28.4715 2.1286 0002223 263.8750 229.0772 15.11458764594686 MET-2/21 1 22782U 93055A 22356.43568604 .00000116 00000-0 91105-4 0 9995 2 22782 82.5492 225.0333 0022231 177.0707 356.4110 13.83867678480009 AO-27 1 22825U 93061C 22356.70730221 .00000125 00000-0 65944-4 0 9998 2 22825 98.8665 31.5323 0007813 217.3764 142.6874 14.30220647525338 IO-26 1 22826U 93061D 22356.33498080 .00000132 00000-0 68094-4 0 9999 2 22826 98.8611 31.0221 0008553 204.3084 155.7695 14.30571921525278 FO-29 1 24278U 96046B 22356.46966715 -.00000003 00000-0 30813-4 0 9993 2 24278 98.5141 354.2589 0350733 155.2555 206.5871 13.53126535301038 NOAA-15 1 25338U 98030A 22356.93315596 .00000172 00000-0 89783-4 0 9999 2 25338 98.6260 23.8366 0011398 106.8556 253.3875 14.26211308280130 GO-32 1 25397U 98043D 22356.62640393 .00000067 00000-0 49242-4 0 9999 2 25397 98.8446 307.8151 0000428 330.2751 29.8403 14.23796931270423 ISS 1 25544U 98067A 22356.91798904 .00031438 00000-0 56521-3 0 9996 2 25544 51.6404 121.6510 0005619 179.9818 279.8263 15.49552489374454 NO-44 1 26931U 01043C 22356.56577767 .00000152 00000-0 89651-4 0 9998 2 26931 67.0517 292.8234 0005260 275.0050 85.0451 14.30780404108475 SO-50 1 27607U 02058C 22356.64215752 .00001329 00000-0 20075-3 0 9999 2 27607 64.5551 85.8730 0080577 258.8162 100.3875 14.76506240 76361 CO-55 1 27844U 03031E 22356.44106135 .00000320 00000-0 16281-3 0 9990 2 27844 98.6790 1.3064 0008799 278.7319 81.2862 14.22564966 10609 CO-57 1 27848U 03031J 22356.74488388 .00000262 00000-0 13809-3 0 9998 2 27848 98.6831 2.0806 0008754 294.1694 65.8568 14.22106271 10477 RS-22 1 27939U 03042A 22356.65375622 .00001162 00000-0 21276-3 0 9994 2 27939 98.2150 137.6689 0012175 339.5138 20.5593 14.67683216 28643 NOAA-18 1 28654U 05018A 22356.73374291 .00000191 00000-0 12677-3 0 9990 2 28654 98.9310 66.8443 0014755 156.3779 203.8073 14.12825905906654 CO-58 1 28895U 05043F 22356.33802996 .00001359 00000-0 26381-3 0 9993 2 28895 98.1301 125.1524 0015279 269.6213 90.3239 14.64747282914914 Falconsat-3 1 30776U 07006E 22356.58192362 .00228459 00000-0 95835-3 0 9993 2 30776 35.4252 89.3264 0007050 87.8103 272.3445 15.83907976879047 CO-65 1 32785U 08021C 22356.33937682 .00003035 00000-0 31658-3 0 9992 2 32785 97.6831 321.5852 0011982 338.3432 21.7278 14.90425751794469 AAUSAT2 1 32788U 08021F 22356.36921881 .00006938 00000-0 57043-3 0 9993 2 32788 97.5538 335.4425 0009246 194.3178 165.7785 14.99415840796575 DO-64 1 32789U 08021G 22356.84865095 .00022144 00000-0 10478-2 0 9998 2 32789 97.3234 16.8030 0010317 36.6570 323.5369 15.19325344800574 CO-66 1 32791U 08021J 22356.41321954 .00004888 00000-0 46430-3 0 9998 2 32791 97.6351 326.9709 0010830 286.6457 73.3574 14.93906234795248 RS-30 1 32953U 08025A 22356.62706611 .00000024 00000-0 10000-3 0 9994 2 32953 82.5045 66.9132 0019331 206.5278 153.4814 12.43116469661716 PRISM 1 33493U 09002B 22356.90578533 .00006647 00000-0 51234-3 0 9992 2 33493 98.2458 354.6977 0015655 277.8001 82.1445 15.01894250757253 NOAA-19 1 33591U 09005A 22356.96912610 .00000210 00000-0 13845-3 0 9994 2 33591 99.1261 34.8669 0014165 22.3798 337.7988 14.12655083715064 SRMSAT 1 37841U 11058D 22356.91399747 .00000413 00000-0 81872-4 0 9993 2 37841 19.9704 195.7061 0011830 254.6628 239.6306 14.10805184578102 HRBE 1 37855U 11061F 22356.55974073 .00014765 00000-0 58596-3 0 9994 2 37855 101.7131 216.1320 0141425 217.1455 141.9913 15.16761148609701 RS-40 1 38735U 12041C 22356.50137566 .00000036 00000-0 18874-3 0 9995 2 38735 82.4733 148.2678 0016757 323.0946 36.8984 12.42589573471875 ZACUBE-1 1 39417U 13066B 22356.38412423 .00002362 00000-0 28757-3 0 9990 2 39417 97.6624 319.7424 0057490 146.9348 213.5482 14.83165685490971 Delfi-N3xt 1 39428U 13066N 22356.51236710 .00004024 00000-0 60903-3 0 9996 2 39428 97.8276 282.9864 0116422 36.7013 324.2096 14.70212253486159 GOMX-1 1 39430U 13066Q 22356.80080085 .00001524 00000-0 27630-3 0 9995 2 39430 97.7965 253.1447 0148093 170.2681 190.1446 14.60746263483784 LO-74 1 39440U 13066AA 22356.41014564 .00002223 00000-0 30233-3 0 9992 2 39440 97.7518 306.3826 0076225 241.2335 118.1204 14.77775838488036 AO-73 1 39444U 13066AE 22356.38934559 .00002962 00000-0 34853-3 0 9999 2 39444 97.6492 322.1905 0056419 133.9367 226.6524 14.84424929489399 SPROUT 1 39770U 14029E 22356.61624938 .00012257 00000-0 11547-2 0 9996 2 39770 97.9555 115.2604 0008230 179.3137 180.8131 14.93949292465729 DTUSAT-2 1 40030U 14033W 22356.36728141 .00003393 00000-0 34927-3 0 9994 2 40030 97.9532 290.1114 0011960 148.0563 212.1382 14.90920708461635 EO-80 1 40032U 14033Y 22356.34255446 .00002618 00000-0 27097-3 0 9996 2 40032 97.9534 290.1024 0011796 149.5024 210.6882 14.90903804461607 HODOYOSHI-1 1 40299U 14070B 22356.96831426 .00008298 00000-0 29553-3 0 9997 2 40299 97.2220 59.5436 0011460 179.5725 306.2245 15.29121225451842 FIREBIRD FU3 1 40377U 15003B 22356.72554034 .00030450 00000-0 71768-3 0 9992 2 40377 99.0794 264.4770 0085309 103.1334 257.9443 15.38078727437276 FIREBIRD FU4 1 40378U 15003C 22356.47837300 .00028203 00000-0 66308-3 0 9992 2 40378 99.0805 264.4335 0085195 103.4358 257.6395 15.38178072437232 GRIFEX 1 40379U 15003D 22356.60870022 .00014028 00000-0 43749-3 0 9990 2 40379 99.0869 247.9983 0104924 153.2928 207.3765 15.28086012436318 XW-2A 1 40903U 15049E 22356.70023462 .00057410 00000-0 57722-3 0 9990 2 40903 97.1526 56.4703 0008002 129.9351 329.1896 15.65243434408572 XW-2C 1 40906U 15049H 22356.74058639 .00008633 00000-0 38707-3 0 9996 2 40906 97.4957 358.9556 0014824 64.2544 50.8762 15.21365701401528 XW-2D 1 40907U 15049J 22356.98228505 .00010197 00000-0 44334-3 0 9995 2 40907 97.4945 359.3766 0013998 58.3988 354.4394 15.22378671401627 LILACSAT-2 1 40908U 15049K 22356.57283042 .00004446 00000-0 22726-3 0 9999 2 40908 97.5221 355.5115 0016546 84.3179 64.1240 15.17066661400996 XW-2E 1 40909U 15049L 22356.55450962 .00016734 00000-0 61849-3 0 9997 2 40909 97.4628 4.0139 0012308 39.4023 59.6209 15.27722621402082 XW-2F 1 40910U 15049M 22356.99482234 .00016716 00000-0 62787-3 0 9996 2 40910 97.4711 3.6390 0013108 38.5536 350.6643 15.27180589401917 XW-2B 1 40911U 15049N 22356.95774176 .00009921 00000-0 43328-3 0 9992 2 40911 97.4928 359.8839 0013990 60.6114 355.7031 15.22233209401504 DCBB 1 40912U 15049P 22356.59645517 .00019653 00000-0 65800-3 0 9991 2 40912 97.4307 7.6032 0011889 5.4283 89.7029 15.30922901402480 TW-1A 1 40928U 15051D 22356.74157741 .00885286 43094-3 11026-2 0 9991 2 40928 97.0079 20.9092 0003343 100.2797 319.6863 16.07836659407826 IO-86 1 40931U 15052B 22356.30792824 .00001116 00000-0 65578-4 0 9997 2 40931 5.9942 268.9247 0013804 310.9726 332.8380 14.76948911391156 AO-85 1 40967U 15058D 22354.21196327 .00001968 00000-0 22975-3 0 5653 2 40967 64.7740 226.3869 0170916 137.7522 223.6901 14.78260774 88110 ATHENOXAT-1 1 41168U 15077C 22356.62800970 .00029738 00000-0 10285-2 0 9997 2 41168 14.9843 129.8824 0007282 16.9172 84.1401 15.27733473389055 ChubuSat-2 1 41338U 16012B 22356.43664065 .00002807 00000-0 20121-3 0 9997 2 41338 31.0030 266.3063 0013144 220.2667 139.6995 15.02215255375760 ChubuSat-3 1 41339U 16012C 22356.42328729 .00002989 00000-0 21469-3 0 9998 2 41339 31.0116 263.3151 0013082 228.9743 130.9761 15.02225770375760 Horyu-4 1 41340U 16012D 22356.06912778 .00005176 00000-0 35184-3 0 9993 2 41340 31.0038 239.8294 0013004 270.7248 89.1898 15.04743801375993 e-st@r-II 1 41459U 16025D 22356.76637785 .00016221 00000-0 62404-3 0 9995 2 41459 98.1913 176.7047 0131875 348.6017 11.2298 15.18671841366024 AAUSAT4 1 41460U 16025E 22356.75960825 .00034615 00000-0 10614-2 0 9992 2 41460 98.1773 185.0047 0104946 317.2884 101.4870 15.28363889366609 LO-87 1 41557U 16033B 22356.57862067 .00025599 00000-0 62361-3 0 9995 2 41557 97.3901 95.3162 0010644 64.7554 60.0599 15.40844836366282 NuSat2 1 41558U 16033C 22356.77159081 .00023868 00000-0 54819-3 0 9999 2 41558 97.4145 102.3184 0010130 54.0587 98.6040 15.42640995366612 Lapan A3 1 41603U 16040E 22356.93372983 .00002119 00000-0 97638-4 0 9997 2 41603 97.1866 25.5878 0011830 211.5301 268.3977 15.21265086360685 Pratham 1 41783U 16059A 22356.59016652 .00000593 00000-0 12240-3 0 9995 2 41783 97.8914 30.3994 0032090 300.5713 59.2325 14.63547698333147 TY-1 1 41844U 16066D 22356.56125056 .00025000 00000-0 70786-3 0 9996 2 41844 97.3826 8.3219 0011161 347.8701 111.5289 15.36212250340428 CAS-2T 1 41847U 16066G 22356.46115949 .00000878 00000-0 14080-3 0 9999 2 41847 98.5293 60.7434 0362572 7.4358 353.2006 14.38968351321382 EO-88 1 42017U 17008BX 22356.66107576 .00029760 00000-0 67842-3 0 9990 2 42017 97.2462 60.6953 0002738 299.9166 60.1810 15.42868569326008 CAS-4B 1 42759U 17034B 22356.96964503 .00007111 00000-0 40059-3 0 9993 2 42759 43.0185 12.4542 0009541 34.8910 44.3454 15.13628524304909 CAS-4A 1 42761U 17034D 22356.99592627 .00006825 00000-0 38391-3 0 9990 2 42761 43.0186 10.9538 0010061 37.3824 49.9074 15.13726015304916 NIUSat 1 42766U 17036B 22356.34699973 .00012519 00000-0 43043-3 0 9995 2 42766 97.1811 27.6521 0013214 26.3398 333.8512 15.30136432305493 Aalto 1 1 42775U 17036L 22356.58127107 .00009083 00000-0 32826-3 0 9995 2 42775 97.1761 27.3930 0012388 26.4558 333.7313 15.28602018305480 URSA MAIOR 1 42776U 17036M 22356.34549102 .00010917 00000-0 38299-3 0 9991 2 42776 97.1776 28.1195 0012018 25.6934 334.4902 15.29527758305499 Max Valier Sat 1 42778U 17036P 22356.33268875 .00013365 00000-0 45076-3 0 9998 2 42778 97.1826 31.1417 0010610 26.5258 333.6524 15.30776405305604 Pegasus 1 42784U 17036V 22356.35303198 .00016343 00000-0 50085-3 0 9990 2 42784 97.1758 32.4994 0009754 25.6209 334.5516 15.33814494305764 NUDATSat 1 42787U 17036Y 22356.96181755 .00044401 00000-0 98873-3 0 9996 2 42787 97.1770 39.0789 0007008 7.4162 352.7189 15.43463554306062 SUCHAI 1 1 42788U 17036Z 22356.06598463 .00023630 00000-0 65330-3 0 9999 2 42788 97.1757 34.4992 0008678 20.8647 339.2950 15.36989445305939 SKCUBE 1 42789U 17036AA 22356.38436563 .00018899 00000-0 54830-3 0 9991 2 42789 97.1758 33.9884 0008941 21.1265 339.0347 15.35523541305857 VZLUSAT 1 1 42790U 17036AB 22356.35039822 .00036833 00000-0 83378-3 0 9994 2 42790 97.1771 38.3815 0006921 10.5189 349.6202 15.43015056306113 VENTA 1 1 42791U 17036AC 22356.32999021 .00016514 00000-0 50121-3 0 9992 2 42791 97.1765 33.5897 0008971 23.4978 336.6674 15.34126678305818 Robusta 1B 1 42792U 17036AD 22356.38321647 .00020406 00000-0 57317-3 0 9991 2 42792 97.1752 34.7421 0008339 20.9238 339.2346 15.36526496305910 D-SAT 1 42794U 17036AF 22356.73376385 .00002520 00000-0 21168-3 0 9993 2 42794 97.4560 352.3732 0121001 173.6366 186.6427 14.93629852299600 TechnoSat 1 42829U 17042E 22356.59386344 .00002166 00000-0 21610-3 0 9997 2 42829 97.3981 199.5934 0015454 96.6481 263.6499 14.92415168296149 AO-91 1 43017U 17073E 22356.26233016 .00005966 00000-0 44149-3 0 9995 2 43017 97.6532 242.6966 0241840 292.2269 65.3453 14.83050384274932 PICSAT 1 43132U 18004X 22356.48485013 .00022915 00000-0 61863-3 0 9993 2 43132 97.3565 72.3690 0007808 51.5093 308.6851 15.37744599275237 AO-92 1 43137U 18004AC 22356.16218096 .00016700 00000-0 50913-3 0 9997 2 43137 97.3523 69.9527 0008248 60.5296 299.6769 15.33993137275070 TianYi 2 1 43155U 18008A 22356.61228207 .00012071 00000-0 58819-3 0 9996 2 43155 97.3291 49.0378 0014223 204.5840 309.9295 15.18396256271796 Zhou Enlai 1 43156U 18008B 22356.57831424 .00012892 00000-0 62923-3 0 9995 2 43156 97.3337 48.9509 0011789 204.0292 293.4769 15.18349612271711 TianYi 6 1 43158U 18008D 22356.42732994 .00010311 00000-0 52687-3 0 9993 2 43158 97.3294 46.3575 0011081 207.7599 164.7739 15.16808553271578 S-Net D 1 43186U 18014G 22356.29722158 .00003037 00000-0 25683-3 0 9990 2 43186 97.6498 258.3739 0012114 35.7917 324.4116 14.98742929267040 S-Net B 1 43187U 18014H 22356.49794224 .00002709 00000-0 22965-3 0 9991 2 43187 97.6494 258.5130 0012121 34.7661 325.4351 14.98740485267077 S-Net A 1 43188U 18014J 22356.49823816 .00002705 00000-0 22930-3 0 9990 2 43188 97.6501 258.5882 0012103 34.7942 325.4070 14.98740980267071 S-Net C 1 43189U 18014K 22356.29906938 .00002789 00000-0 23627-3 0 9992 2 43189 97.6493 258.3040 0012118 35.0139 325.1878 14.98735326265590 FMN 1 1 43192U 18015A 22357.02620078 .00088205 00000-0 13040-2 0 9991 2 43192 97.5518 149.3128 0007565 67.5911 56.0523 15.54985079272551 Shaonian Xing 1 43199U 18015H 22356.97968620 .00036133 00000-0 82793-3 0 9994 2 43199 97.5328 141.9122 0011868 87.2031 61.2532 15.42608488272418 SurfSat 1 43614U 18070B 22356.47567081 .00189907 00000-0 87454-3 0 9995 2 43614 92.9953 179.3848 0006630 354.1130 6.0069 15.83073579240464 CP-7 DAVE 1 43615U 18070C 22356.48245315 .00125742 00000-0 78859-3 0 9996 2 43615 92.9961 178.9018 0007500 358.8063 1.3192 15.76387967240388 CubeBel-1 1 43666U 18083E 22356.92114763 .00017095 00000-0 63892-3 0 9999 2 43666 97.4037 23.7571 0013065 35.2621 84.9335 15.27338429230209 Changshagaoxin 1 43669U 18083H 22356.96854512 .00014514 00000-0 57631-3 0 9996 2 43669 97.3999 19.1876 0010243 36.1952 27.0815 15.25390974230007 Ten-Koh 1 43677U 18084G 22356.41072700 .00001622 00000-0 16677-3 0 9998 2 43677 97.9880 128.5410 0015954 17.0132 343.1618 14.91708340225696 PO-101 1 43678U 18084H 22356.18967864 .00000978 00000-0 10080-3 0 9992 2 43678 97.9949 132.0144 0010569 32.9780 327.2112 14.92567169225852 IRVINE 01 1 43693U 18088D 22356.24659113 .00170186 00000-0 17103-2 0 9996 2 43693 85.0171 181.6794 0005854 76.2913 283.9003 15.64907052229259 QO-100 1 43700U 18090A 22356.47622666 .00000165 00000-0 00000-0 0 9991 2 43700 0.0176 22.1628 0001284 289.4506 336.6275 1.00271321 14914 Reaktor Hello World 1 43743U 18096AA 22356.48765976 .00019903 00000-0 49799-3 0 9998 2 43743 97.3399 76.0871 0014335 101.9877 258.2977 15.40033052226835 MinXSS-2 1 43758U 18099A 22356.42763227 .00003499 00000-0 29564-3 0 9999 2 43758 97.6041 59.7302 0014951 357.6347 2.4803 14.98643806221244 AO-95 1 43770U 18099N 22356.42907630 .00003247 00000-0 28290-3 0 9997 2 43770 97.5992 57.7819 0013994 9.3610 350.7871 14.97508148221133 RANGE-B 1 43772U 18099Q 22356.46127740 .00005139 00000-0 43397-3 0 9996 2 43772 97.6116 59.9824 0012599 358.9719 1.1476 14.98477777221173 RANGE-A 1 43773U 18099R 22356.41769017 .00001952 00000-0 17512-3 0 9990 2 43773 97.5916 56.3158 0013096 358.8289 1.2900 14.96815155221106 MOVE-II 1 43780U 18099Y 22356.45512229 .00006717 00000-0 55030-3 0 9994 2 43780 97.6031 59.4824 0011118 9.6239 350.5195 14.99553602221213 SNUSat 2 1 43782U 18099AA 22356.12532358 .00004150 00000-0 35955-3 0 9998 2 43782 97.6001 57.9921 0011727 0.2745 359.8482 14.97593364221115 SnugLite 1 43784U 18099AC 22356.13059794 .00004751 00000-0 40712-3 0 9993 2 43784 97.5970 57.6203 0014274 6.8771 353.2645 14.97925487221149 ITASat 1 1 43786U 18099AE 22356.14457255 .00003223 00000-0 28074-3 0 9990 2 43786 97.6041 58.5128 0014706 5.8958 354.2435 14.97518084221131 EAGLET 1 1 43790U 18099AJ 22356.42812501 .00001912 00000-0 16862-3 0 9990 2 43790 97.6019 59.3308 0013168 6.2615 353.8769 14.97510239220910 ESEO 1 43792U 18099AL 22356.44973767 .00001731 00000-0 15654-3 0 9993 2 43792 97.5961 58.2566 0012946 5.5877 354.5487 14.96653502220944 CSIM 1 43793U 18099AM 22356.41181908 .00006063 00000-0 48829-3 0 9992 2 43793 97.6120 60.5488 0014792 359.7418 0.3795 15.00218446221048 Astrocast 0.1 1 43798U 18099AS 22356.46808467 .00005644 00000-0 46870-3 0 9996 2 43798 97.6045 60.1992 0010577 348.3082 11.7894 14.99105036221260 JO-97 1 43803U 18099AX 22356.42115133 .00003170 00000-0 27102-3 0 9999 2 43803 97.5993 58.6173 0014589 1.6605 358.4664 14.98259905221202 Suomi 100 1 43804U 18099AY 22356.85552264 .00004325 00000-0 36954-3 0 9995 2 43804 97.5977 58.9146 0014017 2.0958 358.0321 14.98090461221273 Al Farabi 2 1 43805U 18099AZ 22356.61967690 .00005232 00000-0 43527-3 0 9995 2 43805 97.6032 59.4277 0015110 1.3599 358.7658 14.99023314221270 CHOMPTT 1 43855U 18104G 22356.25695587 .00013332 00000-0 43852-3 0 9991 2 43855 85.0340 285.6212 0010794 259.5324 100.4707 15.31337678223420 ISAT 1 43879U 18111D 22356.49374989 .00004874 00000-0 40226-3 0 9994 2 43879 97.6573 258.6936 0014995 53.7658 306.4948 14.99373811217832 UWE-4 1 43880U 18111E 22356.48144527 .00004604 00000-0 37985-3 0 9997 2 43880 97.6577 259.4969 0013247 58.9552 301.2970 14.99433240217866 Sparrow 1 43881U 18111F 22356.54172070 .00004519 00000-0 37067-3 0 9995 2 43881 97.6580 259.8689 0012235 57.7604 302.4804 14.99675324215885 Lume 1 1 43908U 18111AJ 22356.65198206 .00014324 00000-0 42227-3 0 9995 2 43908 97.1660 238.7358 0018041 115.4580 244.8533 15.34952817222212 FO-99 1 43937U 19003F 22356.08316893 .00019643 00000-0 55240-3 0 9997 2 43937 97.1111 22.5552 0017123 194.8260 165.2485 15.36382344218723 AstroCast 0.2 1 44083U 19018F 22356.38248698 .00021093 00000-0 68118-3 0 9996 2 44083 97.2981 51.9910 0008620 165.5906 194.5583 15.32100610207205 AISTechSat 3 1 44103U 19018AB 22356.61527975 .00012540 00000-0 41381-3 0 9993 2 44103 97.2843 52.3101 0010815 178.3322 181.7957 15.31497299207401 AISat 1 1 44104U 19018AC 22356.20016629 .00013506 00000-0 33853-3 0 9996 2 44104 97.3868 80.3471 0048044 177.6799 182.4679 15.38956026208434 Prox-1 1 44339U 19036A 22356.58009448 .00004694 00000-0 98892-3 0 9990 2 44339 24.0014 84.7335 0010501 115.7831 244.3746 14.56429823185883 Oculus-ASR 1 44348U 19036K 22356.28377447 .00167508 76667-6 82333-3 0 9999 2 44348 28.4947 311.9995 0142493 298.9626 59.6760 15.67247471193696 NO-104 1 44354U 19036R 22356.15946816 .00201347 48140-5 84084-3 0 9993 2 44354 28.5201 292.0249 0127411 327.0753 32.1971 15.72772295193880 Move-IIb 1 44398U 19038N 22356.58455983 .00021580 00000-0 88009-3 0 9998 2 44398 97.6461 328.5453 0017872 189.3403 170.7503 15.24313402191634 SONATE 1 44400U 19038Q 22356.36449309 .00006022 00000-0 30833-3 0 9999 2 44400 97.6643 326.2149 0021590 200.7811 159.2546 15.16790907191392 BeeSat 9 1 44412U 19038AC 22356.72539576 .00011294 00000-0 51541-3 0 9994 2 44412 97.6584 328.0735 0017652 197.1356 162.9285 15.20646712191263 JAISAT-1 1 44419U 19038F 22356.39025092 .00011332 00000-0 51083-3 0 9991 2 44419 97.6581 328.7121 0016737 194.5870 165.4884 15.21081535191583 Taurus 1 1 44530U 19059C 22356.86092130 .00003433 00000-0 93590-3 0 9999 2 44530 98.5509 97.3347 0012275 266.0082 93.9718 14.47986893173106 Duchifat 3 1 44854U 19089C 22356.56459648 .00006559 00000-0 48731-3 0 9998 2 44854 36.9640 63.9843 0008079 313.6770 191.0295 15.02689013166228 OPS-SAT 1 44878U 19092F 22356.78296996 .00013365 00000-0 55093-3 0 9999 2 44878 97.4753 179.6193 0012564 46.0340 314.1931 15.24130092166832 TO-108 1 44881U 19093C 22356.50038222 .00000871 00000-0 11633-3 0 9990 2 44881 97.8796 72.8912 0013679 297.0349 62.9471 14.81985635162628 FloripaSat 1 1 44885U 19093G 22356.79940215 .00003047 00000-0 37229-3 0 9996 2 44885 97.8848 75.0462 0012933 299.9918 60.0021 14.83967034162771 RS-44 1 44909U 19096E 22356.37487492 .00000009 00000-0 -20094-5 0 9993 2 44909 82.5215 105.4387 0216671 240.1854 117.7549 12.79717212139541 BY70-2 1 45857U 20042B 22356.51796060 .00011819 00000-0 14669-2 0 9997 2 45857 97.9429 71.7710 0009551 219.3108 140.7430 14.82742136133293 UPMSat 2 1 46276U 20061E 22356.45696886 .00005618 00000-0 26486-3 0 9993 2 46276 97.3727 62.9581 0000921 148.4435 211.6855 15.19878551127417 AmicalSat 1 46287U 20061R 22356.42361291 .00007229 00000-0 39110-3 0 9999 2 46287 97.4269 61.7013 0002557 23.6018 336.5331 15.14945722126905 SALSAT 1 46495U 20068K 22356.46125008 .00004171 00000-0 29338-3 0 9999 2 46495 97.7508 298.1197 0016400 5.4233 354.7168 15.05532831122463 BY70-3 1 46839U 20079N 22357.01540619 .00063268 00000-0 95457-3 0 9991 2 46839 97.1789 67.7307 0004216 21.2892 81.6871 15.54546327119396 CAPE 3 1 47309U 21002A 22356.77920062 .00014847 00000-0 51430-3 0 9999 2 47309 60.6823 14.0940 0042268 88.1863 272.4067 15.29268005107200 AO-109 1 47311U 21002C 22356.46838479 .00012030 00000-0 42152-3 0 9991 2 47311 60.6844 12.6959 0038934 86.2938 274.2603 15.29191349107175 MiTEE 1 1 47314U 21002F 22356.71949939 .00033586 00000-0 83811-3 0 9992 2 47314 60.6792 357.6202 0035997 79.1669 281.3474 15.39342180107471 ExoCube 2 1 47319U 21002L 22356.39413404 .00011622 00000-0 41373-3 0 9998 2 47319 60.6832 14.5131 0040047 87.7515 272.8160 15.28664367107107 UVSQ-SAT 1 47438U 21006AB 22356.75548716 .00008394 00000-0 41143-3 0 9996 2 47438 97.4139 51.9310 0010816 348.9140 11.1854 15.18331981105821 YUSAT 1 1 47439U 21006AC 22356.11870822 .00011077 00000-0 52729-3 0 9997 2 47439 97.4147 51.6021 0010520 349.8564 10.2457 15.19273416105748 SOMP 2b 1 47445U 21006AJ 22356.14431221 .00008110 00000-0 40367-3 0 9992 2 47445 97.4113 50.8186 0010753 355.9569 4.1576 15.17807342105712 IDEASSat 1 47458U 21006AX 22356.41057635 .00007468 00000-0 37402-3 0 9990 2 47458 97.4202 51.7474 0009905 354.2761 5.8358 15.17624211105749 CubeSX-Sirius-HSE 1 47951U 21022V 22356.39518021 .00007514 00000-0 47289-3 0 9990 2 47951 97.5138 251.9608 0019212 219.8729 269.6708 15.09327223 96327 CubeSX-HSE 1 47952U 21022W 22357.03467225 .00006598 00000-0 41516-3 0 9990 2 47952 97.5141 252.6208 0018749 217.4924 252.0843 15.09386492 96421 KSU-Cubesat 1 47954U 21022Y 22356.60958161 .00006856 00000-0 42661-3 0 9997 2 47954 97.5149 252.4006 0018592 217.9967 141.9952 15.09785804 96093 GRBAlpha 1 47959U 21022AD 22356.68669343 .00006631 00000-0 41682-3 0 9994 2 47959 97.5134 252.3351 0018618 219.5619 192.5774 15.09424065 95198 Orbicraft-Zorkiy 1 47960U 21022AE 22356.98149350 .00007699 00000-0 47913-3 0 9998 2 47960 97.5166 252.8632 0018438 217.4058 273.0343 15.09740844 95931 STECCO 1 47962U 21022AG 22356.76101903 .00011672 00000-0 66802-3 0 9992 2 47962 97.5135 253.9188 0013367 208.5256 239.1698 15.12725199 95301 DO-111 1 47963U 21022AH 22356.50277986 .00027772 00000-0 12248-2 0 9992 2 47963 97.5177 256.3826 0012480 193.7309 166.3589 15.21680843 95455 MO-110 1 47964U 21022AJ 22356.27416998 .00011271 00000-0 63605-3 0 9996 2 47964 97.5157 253.8367 0016133 206.2329 153.8086 15.13204368 95253 FEES 1 48082U 21022AL 22356.27824072 .00016169 00000-0 86703-3 0 9999 2 48082 97.5159 254.0603 0012157 200.6050 159.4693 15.14990001 94975 CSS 1 48274U 21035A 22356.88121064 .00018421 00000-0 22694-3 0 9996 2 48274 41.4749 150.2038 0004161 195.4134 289.8653 15.59768989 94263 TUBIN 1 48900U 21059X 22356.64242663 .00006503 00000-0 34524-3 0 9994 2 48900 97.5757 124.9240 0010089 166.0301 203.9358 15.15631218 82407 IT-SPINS 1 49017U 21013G 22355.06084738 .00014490 00000-0 48827-3 0 9991 2 49017 51.5951 224.1043 0007206 43.5568 316.5980 15.30947830 82328 LEDSAT 1 49069U 21073D 22356.45567688 .00005357 00000-0 32733-3 0 9999 2 49069 97.5070 65.6127 0026393 13.3449 346.8472 15.10399990 74193 CUTE 1 49263U 21088D 22356.43214684 .00004954 00000-0 35315-3 0 9995 2 49263 97.5695 60.5780 0020527 141.8059 218.4626 15.04855918 67678 TeikyoSat 4 1 49396U 21102B 22356.43033471 .00002051 00000-0 16363-3 0 9990 2 49396 97.5422 48.6941 0016759 347.2596 12.8203 15.01285577 61248 Z-Sat 1 49399U 21102E 22356.58794303 .00001960 00000-0 14832-3 0 9994 2 49399 97.5111 50.0285 0021921 313.3302 46.6096 15.03287494 61348 KOSEN 1 1 49402U 21102H 22356.70706198 .00004159 00000-0 29943-3 0 9990 2 49402 97.5056 50.4129 0020748 302.1745 57.7469 15.04568749 61405 HO-113 1 50466U 21131B 22356.52713854 .00000328 00000-0 12161-3 0 9999 2 50466 98.5677 73.5646 0003583 315.2667 44.8230 14.38600332 51956 Tevel-3 1 50988U 22002E 22356.44284003 .00012393 00000-0 61964-3 0 9996 2 50988 97.4604 60.4009 0009993 126.6606 289.2638 15.17537745 51894 Tevel-8 1 50989U 22002F 22356.79159052 .00012371 00000-0 61936-3 0 9995 2 50989 97.4626 60.7832 0010312 125.5051 330.2003 15.17489627 51949 Tevel-5 1 50998U 22002Q 22356.73750603 .00012647 00000-0 62177-3 0 9992 2 50998 97.4611 60.9068 0011760 122.3910 333.4273 15.18106212 51955 Tevel-6 1 50999U 22002R 22356.45761559 .00012619 00000-0 62046-3 0 9998 2 50999 97.4601 60.6271 0011665 123.1450 249.3736 15.18105457 51915 Tevel-1 1 51013U 22002AF 22356.44863750 .00012367 00000-0 61892-3 0 9999 2 51013 97.4599 60.3707 0009878 126.7378 290.4287 15.17507367 51891 Grizu-263a 1 51025U 22002AT 22356.17312141 .00022952 00000-0 97195-3 0 9991 2 51025 97.4778 62.2400 0012064 125.2723 234.9644 15.23107716 51940 NO-116 1 51031U 22002AZ 22355.68714859 .00017750 00000-0 81697-3 0 9995 2 51031 97.4733 61.0020 0012810 128.9405 231.2974 15.20305560 51837 IRIS-A 1 51044U 22002BN 22356.40459619 .00006920 00000-0 37023-3 0 9991 2 51044 97.4614 59.8611 0010000 128.8699 231.3427 15.15323556 51858 Tevel-7 1 51062U 22002CG 22356.45694537 .00012307 00000-0 61632-3 0 9995 2 51062 97.4619 60.4326 0010306 125.9657 291.5362 15.17480900 51894 Tevel-4 1 51063U 22002CH 22356.45927409 .00012210 00000-0 61186-3 0 9990 2 51063 97.4621 60.4284 0010257 125.7887 293.7832 15.17460593 51891 Tevel-2 1 51069U 22002CP 22356.66000734 .00012514 00000-0 62564-3 0 9990 2 51069 97.4595 60.5931 0009929 125.3023 26.4455 15.17539820 51925 DELFI-PQ 1 51074U 22002CU 22356.45747064 .00016469 00000-0 71648-3 0 9993 2 51074 97.4865 63.1499 0012843 153.1833 207.0069 15.22253435 52005 SO-115 1 51080U 22002DA 22356.13573547 .00012880 00000-0 59823-3 0 9992 2 51080 97.4881 62.4143 0012982 155.8368 204.3478 15.20062827 51929 SO-114 1 51081U 22002DB 22356.13533572 .00014353 00000-0 66545-3 0 9993 2 51081 97.4870 62.3775 0013314 155.4711 204.7160 15.20095570 51929 OreSat0 1 52017U 22026K 22356.90385926 .00010849 00000-0 53286-3 0 9996 2 52017 97.5075 354.7264 0025325 344.7090 15.3375 15.17957472 42744 Planetum 1 1 52738U 22057G 22356.87599234 .00009153 00000-0 50119-3 0 9993 2 52738 97.5270 108.8877 0006747 236.5265 123.5322 15.14433703 31923 Foresail-1 1 52766U 22057AL 22356.93450623 .00007394 00000-0 39662-3 0 9994 2 52766 97.5367 109.5863 0012335 216.9475 238.2774 15.15190082 31958 SNUGLITE 2 1 52899U 22065F 22356.41508737 .00000928 00000-0 20868-3 0 9997 2 52899 98.0426 141.5442 0009072 54.5769 305.6276 14.58621544 25083 CTIM 1 52950U 22074G 22356.06979434 .00021849 00000-0 78216-3 0 9997 2 52950 45.0079 257.4548 0007812 183.3449 176.7385 15.28440932 26387 IO-117 1 53106U 22080B 22354.06292525 -.00000003 00000-0 00000-0 0 9998 2 53106 70.1740 21.9554 0009007 225.1214 134.8715 6.42557574 10246 AstroBioCubeSat 1 53107U 22080C 22335.48380186 -.00000003 00000-0 00000-0 0 9995 2 53107 70.1769 28.4953 0013706 220.7562 139.2073 6.42110748 8950 CELESTA 1 53111U 22080G 22310.17474584 -.00000003 00000-0 00000-0 0 9995 2 53111 70.4223 37.2580 0024959 243.8956 115.9136 6.43203861 7301 RS4S 1 53306U 98067TR 22356.45314537 .00211250 00000-0 13013-2 0 9998 2 53306 51.6325 113.4816 0005855 281.7535 78.2808 15.75992636 24001 RS3S 1 53308U 98067TT 22356.34919584 .00185700 00000-0 12119-2 0 9997 2 53308 51.6336 114.2868 0005605 276.3883 83.6478 15.74749032 24046 RS1S 1 53309U 98067TU 22356.82575175 .00211716 00000-0 13062-2 0 9990 2 53309 51.6325 111.4590 0006256 282.4644 77.5656 15.75952892 24076 RS5S 1 53310U 98067TV 22356.72825343 .00187644 00000-0 12115-2 0 9996 2 53310 51.6344 112.3175 0005792 277.3192 82.7149 15.74989207 24088 RS6S 1 53311U 98067TW 22356.60250906 .00226036 00000-0 13291-2 0 9996 2 53311 51.6308 112.2132 0005796 283.2763 76.7591 15.77004369 24090 RS9S 1 53312U 98067TX 22356.51557143 .00193564 00000-0 12234-2 0 9995 2 53312 51.6323 113.1472 0006561 280.8180 79.2081 15.75453753 24019 RS12S 1 53313U 98067TY 22356.95342124 .00205701 00000-0 12823-2 0 9996 2 53313 51.6337 110.8222 0006139 286.3680 73.6644 15.75735552 24135 JAGSAT 1 53771U 98067UJ 22355.91173128 .00247003 00000-0 15604-2 0 9996 2 53771 51.6324 118.1188 0008120 287.0250 72.9859 15.75290477 16643 SelfieSat 1 53951U 22057BA 22356.88704278 .00010145 00000-0 54898-3 0 9999 2 53951 97.5321 109.1634 0009259 229.8307 130.2115 15.14808358 31934 FO-118 1 54684U 22167C 22356.20603101 .00009053 00000-0 57649-3 0 9997 2 54684 97.5380 130.9760 0014086 220.2862 262.7425 15.08908381 1943 CAS-10 1 54816U 21035C 22356.59919002 .00068738 00000-0 78450-3 0 9997 2 54816 41.4762 151.8725 0007648 218.6348 141.3944 15.61226368 585 /EX
